星链-31029 (STARLINK-31029 )

导读

STARLINK-31029是美国SpaceX公司星链(Starlink)星座的一员,于2024年1月3日发射入轨。星链是全球低轨宽带互联网星座,该卫星采用平板设计,搭载氪工质霍尔推进器与Ku/Ka波段通信载荷,具备自主避撞能力,服务全球高速互联网接入,同时支持手机直连业务,在退役后会受控离轨,再入大气层烧毁,减少空间碎片影响。

Basic Information
目录编号:
58712
目录名称:
STARLINK-31029
国际标识:
2024-002H
轨道中心:
EARTH
卫星名称:
星链-31029
卫星全名:
星链-31029 (STARLINK-31029 )
卫星状态:
在轨 (已飞行982 天)
发射日期:
2024-01-03 UTC
国别 :
美国 (US)
星等 :
--
This satellite is enrolled in the Space Conjunction Data Service (SCDS) and the current flight risk assessment level is: No High Risk
Orbit Information
数据来源 国际轨道数据
星历时间: 2026-09-11T07:33:54+0800
18小时前
查看轨道信息
半长轴: 6840.87km
偏心率: 0.0001249
轨道倾角: 53.161°
近地点辐角 103.868°
升交点赤经 87.912°
平近点角 256.246°
近地点: 461.878km
远地点: 463.588km
周期: 93.848分钟
每日圈数: 15.343902
Detailed Information
固有亮度:
5
最大亮度:
0.3
卫星平台:
Starlink v2.0 mini
覆盖范围:
全球
运营商:
太空探索技术公司
运营商所在国:
美国
制造商(研发单位):
太空探索技术公司
制造商所在国:
美国
使用方式:
暂无
Satellite Introduction
星链(Starlink)计划是由太空探索技术公司(SpaceX)提出的一个巨型低轨卫星互联网星座项目,计划在2019年至2024年间在太空搭建由约1.2万颗卫星组成的“星链”网络,其中1584颗将部署在地球上空550千米处的近地轨道,并从2020年开始工作。该卫星仍在工作。
2D Orbit Map
3D Orbit Map
Orbit Altitude Analysis Chart
Orbit Inclination Analysis Chart
Orbit Comprehensive Analysis Chart
View Comprehensive Chart
Conjunction Data List
Event ID Objects TCA Miss Dist (km) Collision Risk Probability Collision Risk Index (CRI) Action
CDM_260913-225805-871206-982821
2026-09-13T
22:58:55+0000
0.080 km
近距离
1.1811E-3 极高风险 0.96
CDM_260913-231105-871206-562321
2026-09-13T
23:11:23+0000
0.613 km
远距离
7.8934E-5 中风险 0.73
CDM_260913-155905-871206-629021
2026-09-13T
15:59:37+0000
0.572 km
远距离
6.888844E-5 中风险 0.72
CDM_260913-124905-871206-982821
2026-09-13T
12:49:16+0000
0.705 km
远距离
5.141014E-5 中风险 0.69
CDM_260913-003105-871206-563221
2026-09-13T
00:31:46+0000
0.878 km
远距离
2.672454E-5 中风险 0.64
CDM_260912-142205-871206-563221
2026-09-12T
14:22:07+0000
0.928 km
远距离
2.218306E-5 中风险 0.62
CDM_260912-171805-871206-323721
2026-09-12T
17:18:21+0000
1.514 km
极远距离
4.916829E-6 低风险 0.49
CDM_260912-124805-871206-563221
2026-09-12T
12:48:19+0000
1.693 km
极远距离
2.983684E-6 低风险 0.44
CDM_260913-020505-871206-563221
2026-09-13T
02:05:33+0000
2.347 km
极远距离
1.34346E-6 低风险 0.38
CDM_260913-213705-871206-562321
2026-09-13T
21:37:35+0000
2.445 km
极远距离
1.210569E-6 低风险 0.37
Miss Distance Evolution Trend with All Objects
Collision Probability Evolution Trend with All Objects